Weather in Birštonas

Lithuania     54°36′20″N   24°01′47″E
temp.,
°C
wind,
m/s
gust,
m/s
humid.,
%
clouds,
%
prec.,
mm/h
press.,
hPa
HPBL,
m
19 june, sat
sat1900:00+17se36845 0.0 102186
03:00+16sse368693 0.0 102188
06:00+16sse368713 0.0 1021110
09:00+22sse35685 0.0 1021367
12:00+27sse35530 0.0 10201242
15:00+29sse45461 0.0 10192127
18:00+28se345287 0.0 10181552
21:00+23se49726 0.0 1018287
20 june, sun
sun2000:00+19sse411865 0.0 1018220
03:00+18sse35932 0.0 101990
06:00+18se35920 0.0 1018111
09:00+23se46720 0.0 1018448
12:00+27se575822 0.0 10171575
15:00+29se575228 0.5 10162018
18:00+28se57599 0.1 10141173
21:00+24se49765 0.2 1014246
21 june, mon
mon2100:00+20se310895 0.0 1015221
03:00+19se310915 0.0 1014217
06:00+18se410907 0.0 1014252
09:00+23se47715 0.0 1014482
12:00+27se57515 0.0 10131119
15:00+28se57483 0.0 10121682
18:00+27se585762 0.0 10111638
21:00+23se37781 0.0 1011190
22 june, tue
tue2200:00+20se39880 0.0 1011167
03:00+19sse359324 0.0 1012103
06:00+19se37920 0.0 1011167
09:00+24sse46720 0.0 1012498
12:00+28sse475312 0.0 10111733
15:00+30ssw464797 0.1 10112239
18:00+25nw357794 0.6 1012112
21:00+23n2282100 1.3 101324
23 june, wed
wed2300:00+21ese118571 1.0 101311
03:00+19se229212 1.0 101515
06:00+19se119148 0.0 101413
09:00+23se237582 0.0 1015370
12:00+27sse236071 0.0 1015950
15:00+31ese244642 0.0 10142095
18:00+28ese3665100 0.0 1013229
21:00+24sse368378 0.8 1014101